Погода в Канзас-Сити

США     39°06′30″N   94°33′10″W
темп.,
°C
ветер,
м/с
пор.,
м/с
влажн.,
%
обл.,
%
осадки,
мм/ч
давл.,
гПа
погр.,
м
16 октября, сб
сб1601:00+9з38450 0.0 1021184
04:00+8зсз411450 0.0 1023284
07:00+7зсз38490 0.0 1024182
10:00+12сз49400 0.0 1025483
13:00+17зсз58300 0.0 10251495
16:00+18зсз56280 0.0 10231770
19:00+13з22400 0.0 102326
22:00+11зюз22450 0.0 102427
17 октября, вс
вс1701:00+10зюз22470 0.0 102427
04:00+9юз33500 0.0 102449
07:00+9юз23510 0.0 102442
10:00+15юз23420 0.0 1024240
13:00+20ююз34310 0.0 1022847
16:00+21ююз44320 0.0 10201160
19:00+15ю35530 0.0 1019105
22:00+13ю37580 0.0 1020130
18 октября, пн
пн1801:00+12ю310630 0.0 1019196
04:00+11ююз412640 0.0 1019243
07:00+10ююз411670 0.0 1019222
10:00+16ююз511500 0.0 1019420
13:00+21ю69350 0.0 1017948
16:00+21ю69350 0.0 10151192
19:00+16ю411546 0.0 1015401
22:00+15ю51455100 0.0 1016490
19 октября, вт
вт1901:00+15ю516580 0.0 1016540
04:00+13ю516600 0.0 1015518
07:00+13ю616580 0.0 1015474
10:00+16ю717490 0.0 1015604
13:00+22ююз812450 0.0 10131024
16:00+24ю712480 0.0 10121211
19:00+20ю613610 0.0 1013856
22:00+18ю716610 0.0 1014633
20 октября, ср
ср2001:00+16ююз515650 0.0 1015533
04:00+14ююз51478100 0.4 1015411
07:00+14ююз41285100 1.6 1016375
10:00+16зюз478491 0.0 1017504
13:00+20з46390 0.0 1016952
16:00+21з68350 0.0 10151347
19:00+16з410460 0.0 1016415
22:00+14зсз510510 0.0 1018471